FW3318 Weather Reports


time (UTC)temp
F
wind
direction
speed
knots
gust
knots
rain 1hr
in
rain 24hr
in
rain mn
in
humidity
%
barometer
mb
20240723053040 73 219 0.0 0.9 0.00 0.00 0.00 68 1013.6
20240723052540 73 219 0.0 0.9 0.00 0.00 0.00 67 1013.6
20240723052039 74 219 0.0 0.9 0.00 0.00 0.00 64 1013.6
20240723051542 74 219 0.0 1.7 0.00 0.00 0.00 65 1013.5
20240723051039 74 235 0.0 1.7 0.00 0.00 0.00 66 1013.6
20240723050539 74 235 0.0 1.7 0.00 0.00 0.00 64 1013.6
20240723050042 75 235 0.0 1.7 0.00 0.00 0.00 61 1013.6
20240723045537 75 234 0.0 1.7 0.00 0.00 0.00 61 1013.6
20240723045038 75 234 0.0 3.5 0.00 0.00 0.00 60 1013.7
20240723044554 75 196 0.0 3.5 0.00 0.00 0.00 62 1013.6
20240723044037 75 248 0.0 4.3 0.00 0.00 0.00 62 1013.7
20240723043538 76 207 0.0 4.3 0.00 0.00 0.00 63 1013.7
20240723043038 76 246 0.0 2.6 0.00 0.00 0.00 61 1013.7
20240723042538 76 215 0.0 2.6 0.00 0.00 0.00 58 1013.7
20240723042038 76 214 0.0 3.5 0.00 0.00 0.00 58 1013.6
20240723041542 76 238 0.9 3.5 0.00 0.00 0.00 57 1013.7
20240723041040 76 217 0.0 3.5 0.00 0.00 0.00 57 1013.7
20240723040537 76 243 0.0 2.6 0.00 0.00 0.00 57 1013.6
20240723040036 77 208 0.0 1.7 0.00 0.00 0.00 57 1013.6
20240723035536 77 207 0.0 1.7 0.00 0.00 0.00 55 1013.7
20240723035035 77 248 0.0 1.7 0.00 0.00 0.00 56 1013.6
20240723034539 77 253 0.0 3.5 0.00 0.00 0.00 56 1013.5
20240723034036 77 238 0.0 3.5 0.00 0.00 0.00 56 1013.6
20240723033535 77 232 0.0 3.5 0.00 0.00 0.00 58 1013.7
20240723033043 77 178 0.0 3.5 0.00 0.00 0.00 53 1013.6
20240723032536 77 203 0.0 2.6 0.00 0.00 0.00 53 1013.7
20240723032034 77 203 0.0 2.6 0.00 0.00 0.00 54 1013.7
20240723031545 78 236 0.0 2.6 0.00 0.00 0.00 53 1013.7
20240723031034 78 236 0.0 7.8 0.00 0.00 0.00 51 1013.7
20240723030532 78 234 0.9 7.8 0.00 0.00 0.00 52 1013.8
20240723030037 78 202 0.0 3.5 0.00 0.00 0.00 54 1013.7
20240723025531 78 216 0.9 3.5 0.00 0.00 0.00 51 1013.8
20240723025031 78 210 0.9 3.5 0.00 0.00 0.00 54 1013.8
20240723024530 78 269 0.0 5.2 0.00 0.00 0.00 52 1013.9
20240723024030 78 227 0.9 5.2 0.00 0.00 0.00 52 1013.9
20240723023529 79 213 0.9 4.3 0.00 0.00 0.00 51 1013.9
20240723023029 79 227 0.9 4.3 0.00 0.00 0.00 51 1014.0
20240723022529 79 197 0.9 6.1 0.00 0.00 0.00 50 1013.9
20240723022027 79 181 1.7 6.1 0.00 0.00 0.00 49 1014.0
20240723021527 79 221 0.9 5.2 0.00 0.00 0.00 57 1014.0
20240723021027 79 248 0.9 4.3 0.00 0.00 0.00 54 1014.0
20240723020528 80 171 0.9 3.5 0.00 0.00 0.00 50 1014.0
20240723020025 80 215 0.9 4.3 0.00 0.00 0.00 51 1014.0
20240723015523 80 229 0.0 3.5 0.00 0.00 0.00 53 1014.1
20240723015025 80 186 0.0 3.5 0.00 0.00 0.00 51 1014.2
20240723014530 80 245 0.0 2.6 0.00 0.00 0.00 49 1014.1
20240723014023 80 325 0.0 7.8 0.00 0.00 0.00 49 1014.3
20240723013625 80 251 1.7 7.8 0.00 0.00 0.00 50 1014.3
20240723013021 81 227 0.0 2.6 0.00 0.00 0.00 50 1014.2
20240723012521 81 223 0.9 2.6 0.00 0.00 0.00 48 1014.2
20240723012021 81 244 0.0 2.6 0.00 0.00 0.00 49 1014.2
20240723011520 81 265 0.0 2.6 0.00 0.00 0.00 49 1014.3
20240723011020 81 213 0.9 3.5 0.00 0.00 0.00 51 1014.3
20240723010518 81 163 1.7 4.3 0.00 0.00 0.00 51 1014.3
20240723010023 82 232 1.7 4.3 0.00 0.00 0.00 46 1014.3
20240723005518 82 223 0.9 2.6 0.00 0.00 0.00 49 1014.4
20240723005018 82 231 0.0 1.7 0.00 0.00 0.00 45 1014.4
20240723004518 82 230 0.0 3.5 0.00 0.00 0.00 47 1014.4
20240723004017 82 230 0.0 3.5 0.00 0.00 0.00 48 1014.5
20240723003516 82 137 0.9 3.5 0.00 0.00 0.00 45 1014.5
20240723003017 82 152 0.9 6.1 0.00 0.00 0.00 46 1014.5
20240723002516 82 224 1.7 6.1 0.00 0.00 0.00 48 1014.6
20240723002016 82 268 0.9 3.5 0.00 0.00 0.00 49 1014.7
20240723001516 82 5 1.7 3.5 0.00 0.00 0.00 49 1014.7
20240723001016 82 238 0.0 2.6 0.00 0.00 0.00 49 1014.7
20240723000514 82 193 0.0 3.5 0.00 0.00 0.00 43 1014.7
20240723000013 82 193 0.0 3.5 0.00 0.00 0.00 46 1014.8
20240722235512 82 265 0.0 3.5 0.00 0.00 0.00 48 1014.7
20240722235011 82 192 0.0 5.2 0.00 0.00 0.00 52 1014.7
20240722234511 82 217 1.7 5.2 0.00 0.00 0.00 51 1014.8
20240722234113 82 146 1.7 3.5 0.00 0.00 0.00 47 1014.8
20240722233510 82 319 0.0 6.1 0.00 0.00 0.00 48 1014.9
20240722233010 82 223 0.0 5.2 0.00 0.00 0.00 48 1015.0
20240722232509 82 234 1.7 5.2 0.00 0.00 0.00 49 1014.9
20240722232009 82 166 0.9 5.2 0.00 0.00 0.00 52 1015.0
20240722231511 82 156 1.7 4.3 0.00 0.00 0.00 53 1015.1
20240722231008 81 208 0.9 5.2 0.00 0.00 0.00 51 1015.2
20240722230506 81 215 0.0 5.2 0.00 0.00 0.00 47 1015.3
20240722230006 81 248 0.0 3.5 0.00 0.00 0.00 53 1015.2
20240722225505 81 237 0.0 3.5 0.00 0.00 0.00 45 1015.3
20240722225006 81 221 0.0 1.7 0.00 0.00 0.00 51 1015.4
20240722224504 81 221 0.0 2.6 0.00 0.00 0.00 46 1015.4
20240722224003 80 217 0.0 2.6 0.00 0.00 0.00 51 1015.5
20240722223503 80 327 0.0 0.9 0.00 0.00 0.00 50 1015.6
20240722223006 80 331 0.0 4.3 0.00 0.00 0.00 45 1015.6
20240722222502 80 274 0.0 1.7 0.00 0.00 0.00 49 1015.6
20240722222004 80 121 0.0 5.2 0.00 0.00 0.00 44 1015.6
20240722221600 80 121 0.0 5.2 0.00 0.00 0.00 53 1015.7
20240722221059 80 228 0.9 4.3 0.00 0.00 0.00 54 1015.7
20240722220559 80 260 0.0 3.5 0.00 0.00 0.00 53 1015.8
20240722220059 79 234 0.0 1.7 0.00 0.00 0.00 53 1015.8
20240722215559 79 234 0.0 2.6 0.00 0.00 0.00 53 1015.8
20240722215055 79 230 0.0 3.5 0.00 0.00 0.00 54 1015.8
20240722214555 79 225 0.0 2.6 0.00 0.00 0.00 51 1015.9
20240722214054 79 225 0.0 4.3 0.00 0.00 0.00 50 1016.0
20240722213553 78 222 0.0 4.3 0.00 0.00 0.00 49 1016.0
20240722213103 78 238 0.0 1.7 0.00 0.00 0.00 55 1016.1
20240722212551 78 140 0.0 2.6 0.00 0.00 0.00 58 1016.1
20240722212051 77 140 0.0 5.2 0.00 0.00 0.00 55 1016.2
20240722211551 77 223 1.7 7.0 0.00 0.00 0.00 58 1016.2
20240722211050 77 163 0.0 7.0 0.00 0.00 0.00 57 1016.3
20240722210548 77 215 0.9 3.5 0.00 0.00 0.00 55 1016.2
20240722210047 77 203 0.9 3.5 0.00 0.00 0.00 57 1016.4
20240722205545 76 236 0.0 3.5 0.00 0.00 0.00 59 1016.4
20240722205045 76 218 0.9 3.5 0.00 0.00 0.00 60 1016.5
20240722204543 76 177 0.0 1.7 0.00 0.00 0.00 60 1016.5
20240722204043 76 271 0.0 3.5 0.00 0.00 0.00 59 1016.6
20240722203540 75 140 0.0 4.3 0.00 0.00 0.00 59 1016.6
20240722203039 75 215 1.7 4.3 0.00 0.00 0.00 61 1016.6
20240722202539 75 207 0.0 2.6 0.00 0.00 0.00 60 1016.7
20240722202037 75 207 0.0 2.6 0.00 0.00 0.00 60 1016.8
20240722201536 75 209 0.0 3.5 0.00 0.00 0.00 62 1016.9
20240722201035 75 136 0.9 4.3 0.00 0.00 0.00 63 1016.9
20240722200537 74 123 0.9 4.3 0.00 0.00 0.00 62 1016.9
20240722200034 74 217 0.9 4.3 0.00 0.00 0.00 63 1016.9
20240722195532 74 146 0.9 2.6 0.00 0.00 0.00 64 1017.1
20240722195030 74 223 0.0 3.5 0.00 0.00 0.00 65 1017.1
20240722194535 74 169 0.0 3.5 0.00 0.00 0.00 63 1017.1
20240722194028 73 231 0.0 2.6 0.00 0.00 0.00 68 1017.1
20240722193530 73 180 0.0 2.6 0.00 0.00 0.00 64 1017.2
20240722193030 73 189 0.9 2.6 0.00 0.00 0.00 66 1017.2
20240722192524 72 158 0.0 2.6 0.00 0.00 0.00 64 1017.3
20240722192023 72 161 0.9 2.6 0.00 0.00 0.00 61 1017.3
20240722191534 71 219 0.9 2.6 0.00 0.00 0.00 65 1017.4
20240722191020 71 178 0.9 2.6 0.00 0.00 0.00 66 1017.5
20240722190519 71 192 0.9 2.6 0.00 0.00 0.00 69 1017.4
20240722190020 70 113 0.0 2.6 0.00 0.00 0.00 66 1017.4
20240722185515 70 113 0.0 2.6 0.00 0.00 0.00 68 1017.5
20240722185014 69 222 0.0 0.9 0.00 0.00 0.00 70 1017.6
20240722184514 69 221 0.0 0.9 0.00 0.00 0.00 71 1017.6
20240722184014 69 221 0.0 1.7 0.00 0.00 0.00 70 1017.5
20240722183511 68 221 0.0 1.7 0.00 0.00 0.00 70 1017.6
20240722183010 69 221 0.0 0.9 0.00 0.00 0.00 72 1017.7
20240722182509 68 221 0.0 0.9 0.00 0.00 0.00 69 1017.8
20240722182007 68 221 0.0 0.9 0.00 0.00 0.00 73 1018.0
20240722181506 68 221 0.0 0.0 0.00 0.00 0.00 72 1018.0
20240722181004 68 221 0.0 0.0 0.00 0.00 0.00 71 1018.1
20240722180503 67 221 0.0 0.0 0.00 0.00 0.00 70 1018.1
20240722180001 67 221 0.0 0.0 0.00 0.00 0.00 73 1018.1
20240722175603 66 221 0.0 0.0 0.00 0.00 0.00 76 1018.2
20240722175059 66 221 0.0 0.0 0.00 0.00 0.00 75 1018.1
20240722174558 66 221 0.0 0.0 0.00 0.00 0.00 75 1018.3
20240722174059 65 221 0.0 0.0 0.00 0.00 0.00 72 1018.3
20240722173555 65 221 0.0 0.0 0.00 0.00 0.00 76 1018.5
20240722173054 65 221 0.0 0.0 0.00 0.00 0.00 74 1018.4
20240722172552 64 221 0.0 0.0 0.00 0.00 0.00 75 1018.6
20240722172050 64 221 0.0 0.0 0.00 0.00 0.00 77 1018.6
20240722171549 63 221 0.0 0.0 0.00 0.00 0.00 76 1018.6
20240722171047 62 221 0.0 0.0 0.00 0.00 0.00 77 1018.6
20240722170547 62 221 0.0 0.0 0.00 0.00 0.00 78 1018.6
20240722170046 62 221 0.0 0.0 0.00 0.00 0.00 77 1018.7
20240722165544 61 221 0.0 0.0 0.00 0.00 0.00 79 1018.8
20240722165043 61 221 0.0 0.0 0.00 0.00 0.00 80 1018.8
20240722164601 60 221 0.0 0.0 0.00 0.00 0.00 82 1018.7
20240722164045 60 221 0.0 0.0 0.00 0.00 0.00 82 1018.8
20240722163542 59 221 0.0 0.0 0.00 0.00 0.00 83 1018.7
20240722163040 58 221 0.0 0.0 0.00 0.00 0.00 83 1018.8
20240722162538 58 221 0.0 0.0 0.00 0.00 0.00 84 1018.7
20240722162039 57 221 0.0 0.0 0.00 0.00 0.00 85 1018.6
20240722161535 56 221 0.0 0.0 0.00 0.00 0.00 87 1018.6
20240722161034 56 221 0.0 0.0 0.00 0.00 0.00 89 1018.5
20240722160536 55 221 0.0 0.0 0.00 0.00 0.00 89 1018.7
20240722160032 54 221 0.0 0.0 0.00 0.00 0.00 91 1018.5
20240722155530 54 221 0.0 0.0 0.00 0.00 0.00 92 1018.7
20240722155030 53 221 0.0 0.0 0.00 0.00 0.00 92 1018.8
20240722154533 53 221 0.0 0.0 0.00 0.00 0.00 93 1018.8
20240722154029 53 221 0.0 0.0 0.00 0.00 0.00 93 1018.8
20240722153530 52 221 0.0 0.0 0.00 0.00 0.00 94 1018.7
20240722153035 52 221 0.0 0.0 0.00 0.00 0.00 94 1018.8
20240722152527 52 221 0.0 0.0 0.00 0.00 0.00 95 1018.8
20240722152027 51 221 0.0 0.0 0.00 0.00 0.00 95 1018.9
20240722151527 51 221 0.0 0.0 0.00 0.00 0.00 95 1018.7
20240722151026 51 221 0.0 0.0 0.00 0.00 0.00 95 1018.7
20240722150526 51 221 0.0 0.0 0.00 0.00 0.00 96 1018.8
20240722150026 51 221 0.0 0.0 0.00 0.00 0.00 96 1018.8
20240722145526 50 221 0.0 0.0 0.00 0.00 0.00 96 1018.8
20240722145025 50 222 0.0 0.0 0.00 0.00 0.00 96 1018.7
20240722144525 50 222 0.0 0.0 0.00 0.00 0.00 96 1018.6
20240722144124 50 222 0.0 0.0 0.00 0.00 0.00 96 1018.6
20240722143523 50 222 0.0 0.0 0.00 0.00 0.00 96 1018.5
20240722143032 49 222 0.0 0.0 0.00 0.00 0.00 96 1018.6
20240722142522 49 222 0.0 0.0 0.00 0.00 0.00 96 1018.6
20240722142021 49 222 0.0 0.0 0.00 0.00 0.00 96 1018.6
20240722141523 49 222 0.0 0.0 0.00 0.00 0.00 96 1018.8
20240722141021 49 222 0.0 0.0 0.00 0.00 0.00 96 1018.7
20240722140620 49 222 0.0 0.0 0.00 0.00 0.00 95 1018.6
20240722140019 49 222 0.0 0.0 0.00 0.00 0.00 95 1018.7
20240722135520 49 222 0.0 0.0 0.00 0.00 0.00 95 1018.8
20240722135018 50 222 0.0 0.0 0.00 0.00 0.00 95 1018.7
20240722134520 50 222 0.0 0.0 0.00 0.00 0.00 96 1018.8
20240722134021 50 222 0.0 0.0 0.00 0.00 0.00 95 1018.8
20240722133517 50 222 0.0 0.0 0.00 0.00 0.00 96 1018.7
20240722133022 50 222 0.0 0.0 0.00 0.00 0.00 96 1018.9
20240722132515 50 222 0.0 0.0 0.00 0.00 0.00 96 1018.9
20240722132015 50 222 0.0 0.0 0.00 0.00 0.00 96 1018.9
20240722131516 50 222 0.0 0.0 0.00 0.00 0.00 95 1018.9
20240722131014 50 222 0.0 0.0 0.00 0.00 0.00 95 1018.9
20240722130515 50 222 0.0 0.0 0.00 0.00 0.00 95 1019.0
20240722130034 50 222 0.0 0.0 0.00 0.00 0.00 95 1019.0
20240722125511 50 222 0.0 0.0 0.00 0.00 0.00 95 1019.1
20240722125010 51 222 0.0 0.0 0.00 0.00 0.00 95 1019.1
20240722124510 51 222 0.0 0.0 0.00 0.00 0.00 95 1019.1
20240722124010 51 222 0.0 0.0 0.00 0.00 0.00 95 1019.1
20240722123512 51 222 0.0 0.0 0.00 0.00 0.00 95 1019.1
20240722123011 51 222 0.0 0.0 0.00 0.00 0.00 95 1019.2
20240722122508 51 222 0.0 0.0 0.00 0.00 0.00 95 1019.3
20240722122007 51 222 0.0 0.0 0.00 0.00 0.00 95 1019.3
20240722121508 51 222 0.0 0.0 0.00 0.00 0.00 95 1019.4
20240722121006 51 222 0.0 0.0 0.00 0.00 0.00 95 1019.4
20240722120505 52 222 0.0 0.0 0.00 0.00 0.00 95 1019.4
20240722120008 52 222 0.0 0.0 0.00 0.00 0.00 95 1019.4
20240722115504 52 222 0.0 0.0 0.00 0.00 0.00 95 1019.4
20240722115003 52 222 0.0 0.0 0.00 0.00 0.00 95 1019.4
20240722114502 52 222 0.0 0.0 0.00 0.00 0.00 95 1019.4
20240722114002 52 222 0.0 0.0 0.00 0.00 0.00 95 1019.5
20240722113503 52 222 0.0 0.0 0.00 0.00 0.00 94 1019.4
20240722113001 52 222 0.0 0.0 0.00 0.00 0.00 94 1019.5
20240722112502 53 222 0.0 0.0 0.00 0.00 0.00 94 1019.5
20240722112100 53 222 0.0 0.0 0.00 0.00 0.00 94 1019.4
20240722111600 53 222 0.0 0.0 0.00 0.00 0.00 94 1019.5
20240722111059 53 222 0.0 0.0 0.00 0.00 0.00 94 1019.5
20240722110559 53 222 0.0 0.0 0.00 0.00 0.00 94 1019.4
20240722110112 53 222 0.0 0.9 0.00 0.00 0.00 94 1019.4
20240722105556 53 222 0.0 0.9 0.00 0.00 0.00 93 1019.4
20240722105055 54 222 0.0 0.0 0.00 0.00 0.00 93 1019.4
20240722104555 54 222 0.0 0.0 0.00 0.00 0.00 93 1019.3
20240722104056 54 222 0.0 0.0 0.00 0.00 0.00 93 1019.3
20240722103553 54 222 0.0 0.0 0.00 0.00 0.00 93 1019.3
20240722103058 54 222 0.0 0.0 0.00 0.00 0.00 93 1019.2
20240722102553 55 222 0.0 0.0 0.00 0.00 0.00 93 1019.2
20240722102054 55 222 0.0 0.0 0.00 0.00 0.00 92 1019.2
20240722101551 55 222 0.0 0.0 0.00 0.00 0.00 92 1019.3
20240722101050 55 222 0.0 0.0 0.00 0.00 0.00 92 1019.3
20240722100553 55 222 0.0 0.0 0.00 0.00 0.00 93 1019.3
20240722100055 55 222 0.0 0.0 0.00 0.00 0.00 92 1019.3
20240722095548 56 222 0.0 0.0 0.00 0.00 0.00 92 1019.2
20240722095047 56 222 0.0 0.0 0.00 0.00 0.00 92 1019.2
20240722094604 56 222 0.0 0.0 0.00 0.00 0.00 92 1019.2
20240722094046 56 222 0.0 0.0 0.00 0.00 0.00 92 1019.2
20240722093544 57 222 0.0 0.0 0.00 0.00 0.00 93 1019.3
20240722093055 57 222 0.0 0.0 0.00 0.00 0.00 93 1019.3
20240722092545 57 222 0.0 0.0 0.00 0.00 0.00 92 1019.3
20240722092043 57 222 0.0 0.0 0.00 0.00 0.00 92 1019.2
20240722091542 57 222 0.0 0.0 0.00 0.00 0.00 92 1019.2
20240722091043 57 222 0.0 0.0 0.00 0.00 0.00 92 1019.1
20240722090541 58 222 0.0 0.0 0.00 0.00 0.00 91 1019.3
20240722090043 58 222 0.0 0.0 0.00 0.00 0.00 91 1019.2
20240722085539 58 222 0.0 0.0 0.00 0.00 0.00 90 1019.3
20240722085041 58 222 0.0 0.0 0.00 0.00 0.00 89 1019.2
20240722084538 58 222 0.0 0.0 0.00 0.00 0.00 88 1019.3
20240722084036 58 222 0.0 0.0 0.00 0.00 0.00 87 1019.2
20240722083539 59 222 0.0 0.0 0.00 0.00 0.00 87 1019.2
20240722083035 59 222 0.0 0.0 0.00 0.00 0.00 86 1019.2
20240722082533 59 222 0.0 0.0 0.00 0.00 0.00 85 1019.1
20240722082033 59 222 0.0 0.0 0.00 0.00 0.00 85 1019.1
20240722081544 60 222 0.0 0.0 0.00 0.00 0.00 84 1019.1
20240722081031 60 222 0.0 0.0 0.00 0.00 0.00 83 1019.1
20240722080534 60 222 0.0 0.0 0.00 0.00 0.00 83 1019.0
20240722080029 61 222 0.0 0.0 0.00 0.00 0.00 82 1019.0
20240722075527 61 222 0.0 0.0 0.00 0.00 0.00 82 1019.1
20240722075027 61 222 0.0 0.0 0.00 0.00 0.00 82 1019.1
20240722074528 61 222 0.0 0.0 0.00 0.00 0.00 82 1019.1
20240722074029 62 222 0.0 0.0 0.00 0.00 0.00 82 1019.1
20240722073527 62 222 0.0 0.0 0.00 0.00 0.00 82 1019.1
20240722073029 62 222 0.0 0.0 0.00 0.00 0.00 82 1019.2
20240722072531 62 222 0.0 0.0 0.00 0.00 0.00 82 1019.3
20240722072026 63 222 0.0 0.0 0.00 0.00 0.00 82 1019.2
20240722071536 63 222 0.0 0.0 0.00 0.00 0.00 80 1019.3
20240722071026 63 222 0.0 0.0 0.00 0.00 0.00 79 1019.2
20240722070526 64 222 0.0 0.0 0.00 0.00 0.00 79 1019.1
20240722070029 64 222 0.0 0.0 0.00 0.00 0.00 79 1019.1
20240722065525 64 222 0.0 0.0 0.00 0.00 0.00 78 1019.2
20240722065027 65 222 0.0 0.0 0.00 0.00 0.00 78 1019.2
20240722064530 65 222 0.0 0.0 0.00 0.00 0.00 76 1019.2
20240722064024 65 222 0.0 0.0 0.00 0.00 0.00 77 1019.2
20240722063524 66 222 0.0 0.0 0.00 0.00 0.00 77 1019.2
20240722063028 66 222 0.0 0.0 0.00 0.00 0.00 77 1019.2
20240722062523 66 222 0.0 0.0 0.00 0.00 0.00 76 1019.2
20240722062028 66 222 0.0 0.0 0.00 0.00 0.00 75 1019.2
20240722061523 67 222 0.0 0.9 0.00 0.00 0.00 75 1019.3
20240722061023 67 222 0.0 0.9 0.00 0.00 0.00 73 1019.2
20240722060523 67 222 0.0 0.9 0.00 0.00 0.00 71 1019.2
20240722060022 68 222 0.0 0.9 0.00 0.00 0.00 71 1019.3
20240722055524 68 222 0.0 0.0 0.00 0.00 0.00 73 1019.3
20240722055022 68 222 0.0 0.0 0.00 0.00 0.00 71 1019.3
20240722054521 69 222 0.0 0.0 0.00 0.00 0.00 72 1019.3
20240722054021 69 221 0.0 0.0 0.00 0.00 0.00 71 1019.3
20240722053520 69 221 0.0 0.0 0.00 0.00 0.00 70 1019.3